Hourly Weather Muravschina

Today, 28 September, Tuesday

Time Temperature Precipitation Wind Pressure Humidity
00:00 +6°C° 0 mm 2 mps 758 mmHg 91%
01:00 +7°C° 0 mm 1 mps 758 mmHg 89%
02:00 +8°C° 0 mm 1 mps 758 mmHg 88%
03:00 +8°C° 0 mm 1 mps 758 mmHg 87%
04:00 +8°C° 0 mm 1 mps 758 mmHg 87%
05:00 +8°C° 0 mm 2 mps 758 mmHg 86%
06:00 +8°C° 0 mm 2 mps 758 mmHg 86%
07:00 +8°C° 0 mm 2 mps 758 mmHg 86%
08:00 +8°C° 0 mm 2 mps 758 mmHg 86%
09:00 +10°C° 0 mm 2 mps 759 mmHg 78%
10:00 +12°C° 0 mm 2 mps 759 mmHg 71%
11:00 +12°C° 0 mm 3 mps 759 mmHg 63%
12:00 +12°C° 0 mm 3 mps 759 mmHg 63%
13:00 +12°C° 0 mm 3 mps 759 mmHg 64%
14:00 +13°C° 0 mm 2 mps 759 mmHg 64%
15:00 +12°C° 0 mm 2 mps 759 mmHg 68%
16:00 +11°C° 0 mm 3 mps 760 mmHg 73%
17:00 +10°C° 0 mm 3 mps 760 mmHg 77%
18:00 +10°C° 0 mm 3 mps 760 mmHg 78%
19:00 +9°C° 0 mm 2 mps 760 mmHg 80%
20:00 +9°C° 0 mm 2 mps 761 mmHg 81%
21:00 +8°C° 0 mm 2 mps 761 mmHg 83%
22:00 +8°C° 0 mm 2 mps 761 mmHg 84%
23:00 +8°C° 0 mm 2 mps 761 mmHg 85%

Tomorrow, 29 September, Wednesday

Time Temperature Precipitation Wind Pressure Humidity
00:00 +8°C° 0 mm 2 mps 762 mmHg 85%
01:00 +8°C° 0 mm 2 mps 762 mmHg 86%
02:00 +7°C° 0 mm 2 mps 762 mmHg 86%
03:00 +7°C° 0 mm 2 mps 762 mmHg 87%
04:00 +6°C° 0 mm 2 mps 762 mmHg 89%
05:00 +6°C° 0 mm 2 mps 762 mmHg 90%
06:00 +5°C° 0 mm 3 mps 762 mmHg 87%
07:00 +5°C° 0 mm 3 mps 763 mmHg 85%
08:00 +7°C° 0 mm 3 mps 763 mmHg 83%
09:00 +8°C° 0 mm 3 mps 763 mmHg 75%
10:00 +9°C° 0 mm 3 mps 763 mmHg 67%
11:00 +11°C° 0 mm 3 mps 763 mmHg 60%
12:00 +11°C° 0 mm 4 mps 763 mmHg 57%
13:00 +11°C° 0 mm 4 mps 762 mmHg 53%
14:00 +12°C° 0 mm 4 mps 762 mmHg 50%
15:00 +11°C° 0 mm 3 mps 762 mmHg 55%
16:00 +10°C° 0 mm 3 mps 762 mmHg 59%
17:00 +9°C° 0 mm 2 mps 762 mmHg 64%
18:00 +8°C° 0 mm 2 mps 762 mmHg 69%
19:00 +7°C° 0 mm 2 mps 762 mmHg 75%
20:00 +5°C° 0 mm 2 mps 762 mmHg 80%
21:00 +5°C° 0 mm 2 mps 762 mmHg 82%
22:00 +5°C° 0 mm 2 mps 762 mmHg 84%
23:00 +4°C° 0 mm 2 mps 762 mmHg 86%

Day after tomorrow, 30 September, Thursday

Time Temperature Precipitation Wind Pressure Humidity
00:00 +4°C° 0 mm 2 mps 762 mmHg 88%
01:00 +4°C° 0 mm 2 mps 762 mmHg 89%
02:00 +3°C° 0 mm 2 mps 762 mmHg 91%
03:00 +3°C° 0 mm 2 mps 762 mmHg 92%
04:00 +3°C° 0 mm 2 mps 762 mmHg 92%
05:00 +3°C° 0 mm 2 mps 761 mmHg 93%
06:00 +3°C° 0 mm 3 mps 762 mmHg 88%
07:00 +4°C° 0 mm 3 mps 762 mmHg 84%
08:00 +5°C° 0 mm 3 mps 762 mmHg 79%
09:00 +6°C° 0 mm 4 mps 762 mmHg 73%
10:00 +8°C° 0 mm 4 mps 761 mmHg 66%
11:00 +11°C° 0 mm 4 mps 761 mmHg 59%
12:00 +10°C° 0 mm 5 mps 761 mmHg 57%
13:00 +12°C° 0 mm 5 mps 761 mmHg 55%
14:00 +13°C° 0 mm 5 mps 760 mmHg 53%
15:00 +12°C° 0 mm 4 mps 760 mmHg 57%
16:00 +11°C° 0 mm 4 mps 760 mmHg 62%
17:00 +10°C° 0 mm 3 mps 760 mmHg 67%
18:00 +9°C° 0 mm 3 mps 760 mmHg 72%
19:00 +8°C° 0 mm 3 mps 760 mmHg 78%
20:00 +5°C° 0 mm 3 mps 760 mmHg 84%
21:00 +5°C° 0 mm 3 mps 760 mmHg 84%
22:00 +5°C° 0 mm 3 mps 760 mmHg 85%
23:00 +5°C° 0 mm 3 mps 760 mmHg 86%

1 October, Friday

Time Temperature Precipitation Wind Pressure Humidity
00:00 +5°C° 0 mm 3 mps 760 mmHg 84%
01:00 +5°C° 0 mm 3 mps 760 mmHg 82%
02:00 +7°C° 0 mm 3 mps 760 mmHg 80%
03:00 +7°C° 0 mm 3 mps 760 mmHg 79%
04:00 +7°C° 0 mm 3 mps 760 mmHg 78%
05:00 +7°C° 0 mm 2 mps 760 mmHg 77%
06:00 +7°C° 0.2 mm 2 mps 760 mmHg 79%
07:00 +7°C° 0.2 mm 2 mps 760 mmHg 81%
08:00 +7°C° 0.2 mm 2 mps 760 mmHg 83%
09:00 +7°C° 0 mm 2 mps 760 mmHg 83%
10:00 +8°C° 0 mm 2 mps 761 mmHg 83%
11:00 +8°C° 0 mm 2 mps 761 mmHg 83%
12:00 +9°C° 0 mm 2 mps 761 mmHg 81%
13:00 +10°C° 0 mm 2 mps 760 mmHg 78%
14:00 +12°C° 0 mm 2 mps 760 mmHg 76%
15:00 +12°C° 0 mm 2 mps 760 mmHg 78%
16:00 +12°C° 0 mm 2 mps 760 mmHg 81%
17:00 +10°C° 0 mm 2 mps 760 mmHg 83%
18:00 +10°C° 0 mm 2 mps 760 mmHg 84%
19:00 +9°C° 0 mm 2 mps 760 mmHg 85%
20:00 +9°C° 0 mm 2 mps 760 mmHg 87%
21:00 +8°C° 0 mm 2 mps 760 mmHg 89%
22:00 +7°C° 0 mm 2 mps 760 mmHg 91%
23:00 +7°C° 0 mm 2 mps 760 mmHg 93%

2 October, Saturday

Time Temperature Precipitation Wind Pressure Humidity
00:00 +7°C° 0 mm 2 mps 760 mmHg 93%
01:00 +7°C° 0 mm 2 mps 760 mmHg 94%
02:00 +6°C° 0 mm 2 mps 759 mmHg 94%
03:00 +6°C° 0 mm 2 mps 759 mmHg 93%
04:00 +6°C° 0 mm 2 mps 759 mmHg 92%
05:00 +6°C° 0 mm 2 mps 759 mmHg 92%
06:00 +6°C° 0 mm 2 mps 759 mmHg 87%
07:00 +7°C° 0 mm 3 mps 759 mmHg 83%
08:00 +8°C° 0 mm 3 mps 758 mmHg 78%
09:00 +9°C° 0 mm 3 mps 758 mmHg 70%
10:00 +11°C° 0 mm 4 mps 758 mmHg 62%
11:00 +13°C° 0 mm 4 mps 758 mmHg 54%
12:00 +13°C° 0 mm 4 mps 758 mmHg 52%
13:00 +14°C° 0 mm 4 mps 758 mmHg 50%
14:00 +14°C° 0 mm 4 mps 757 mmHg 48%
15:00 +13°C° 0 mm 4 mps 757 mmHg 53%
16:00 +12°C° 0 mm 4 mps 757 mmHg 58%
17:00 +11°C° 0 mm 4 mps 757 mmHg 63%
18:00 +10°C° 0 mm 4 mps 757 mmHg 67%
19:00 +9°C° 0 mm 3 mps 757 mmHg 71%
20:00 +8°C° 0 mm 3 mps 757 mmHg 76%
21:00 +8°C° 0 mm 3 mps 757 mmHg 77%
22:00 +7°C° 0 mm 3 mps 757 mmHg 79%
23:00 +7°C° 0 mm 3 mps 757 mmHg 80%

3 October, Sunday

Time Temperature Precipitation Wind Pressure Humidity
00:00 +7°C° 0 mm 3 mps 756 mmHg 81%
01:00 +7°C° 0 mm 3 mps 756 mmHg 81%
02:00 +7°C° 0 mm 3 mps 756 mmHg 81%
03:00 +5°C° 0 mm 3 mps 756 mmHg 80%
04:00 +5°C° 0 mm 3 mps 756 mmHg 78%
05:00 +5°C° 0 mm 3 mps 756 mmHg 77%
06:00 +6°C° 0 mm 4 mps 756 mmHg 74%
07:00 +6°C° 0 mm 4 mps 756 mmHg 71%
08:00 +7°C° 0 mm 4 mps 756 mmHg 69%
09:00 +8°C° 0 mm 4 mps 756 mmHg 63%
10:00 +10°C° 0 mm 5 mps 756 mmHg 57%
11:00 +12°C° 0 mm 5 mps 756 mmHg 52%
12:00 +13°C° 0 mm 5 mps 756 mmHg 51%
13:00 +14°C° 0 mm 5 mps 756 mmHg 51%
14:00 +14°C° 0 mm 5 mps 755 mmHg 50%
15:00 +13°C° 0 mm 4 mps 755 mmHg 54%
16:00 +13°C° 0 mm 4 mps 755 mmHg 58%
17:00 +12°C° 0 mm 4 mps 755 mmHg 62%
18:00 +11°C° 0 mm 4 mps 755 mmHg 66%
19:00 +10°C° 0 mm 4 mps 755 mmHg 70%
20:00 +8°C° 0 mm 4 mps 755 mmHg 73%
21:00 +8°C° 0 mm 4 mps 755 mmHg 75%
22:00 +7°C° 0 mm 4 mps 755 mmHg 76%
23:00 +7°C° 0 mm 4 mps 755 mmHg 77%
Show more

We Need Your Consent

Meteoprog and our Service Providers may store and access personal data such as cookies, device identifiers or other similar technologies on your device and process such data to personalise content and ads, as well as provide social media features and to analyse the traffic.

  • Store and/or access information on your device

    Cookies, device identifiers or other information can be stored or accessed on your device for the purposes indicated above.

  • Personalised ads and content, ad and content measurement, audience insights, and products development

    Ads and content can be personalised based on a profile. More data can be added to better personalise ads and content. Ad and content performance can be measured. Insights about the audience who saw the ads and content can be derived. Such data can be used to develop or improve user’s experience, systems and software.

By clicking ‘I Agree’ you will allow the use of indicated cookies, device identifiers, web beacons or other similar technologies. Your settings can be changed in the browser on your device.

For certain purposes, legitimate interests may be relied on, rather than consent. You can read more about this in our Privacy and Cookie Policy.